Content
SEND FEEDBACK

Daily
Averages
Monthly
Summary
United States of America

FAYETTEVILLE, TENNESSEE


Home > North America > United States > Tennessee
Elevation: 213 meters     Latitude: 35 10N     Longitude: 086 33W

WEATHER
 
SELECT A DAY
Number of Records: 298,249;   Date Range: 4/22/02 - 8/28/14
 
SHARE

PRINT THIS DATA

[ ← Previous Day ]
WEATHER ALMANAC - 12 JANUARY, 2014
[ Next Day → ]
[ °F ]   °C
Weather ElementAverageHighLow
Temperature5.1 °C14 °C (2:55 pm)-1 °C (4:15 am)
Dewpoint-1.8 °C3 °C (8:55 am)-6 °C (2:55 pm)
Humidity67.1 %100 % (8:15 am)25 % (2:55 pm)
Barometer1019 hPa1021.7 hPa (8:55 am)1015.9 hPa (12:55 am)
Wind Speed3.5 km/h16.7 km/h (2:15 pm)
Wind Gust25.9 km/h (2:15 pm)
Weather ElementAverage
Visibility15 km
Wind DirectionENE (71.9 °)

Weather ElementTotal
Precipitation---
Heating Degree Days11.8 (Base 18.3)
Averaged from 69 records on 12 January, 2014
WEATHER CONDITIONS BREAKOUT
WIND DIRECTION BREAKOUT
WEATHER BY HOUR - 12 JANUARY, 2014
[ °F ]   °C
Local TimeTemperatureDewpointHumidityBarometerVisibilityWind DirectionWind SpeedGust SpeedPrecipitationEventsConditions
12:35 AM1 °C0 °C93 %1016.3 hPa16.1 kmCalmClear
12:55 AM1 °C0 °C93 %1015.9 hPa16.1 kmCalmClear
1:15 AM1 °C0 °C93 %1015.9 hPa16.1 kmCalmClear
1:35 AM1 °C0 °C93 %1016.3 hPa16.1 kmCalmClear
1:55 AM0 °C-1 °C93 %1016.6 hPa16.1 kmCalmClear
2:15 AM0 °C-1 °C93 %1016.6 hPa16.1 kmCalmClear
2:35 AM0 °C-1 °C93 %1016.9 hPa16.1 kmCalmClear
2:55 AM0 °C-1 °C93 %1016.9 hPa16.1 kmCalmClear
3:15 AM0 °C-1 °C93 %1017.3 hPa16.1 kmCalmClear
3:35 AM0 °C-1 °C93 %1016.9 hPa16.1 kmCalmClear
3:55 AM0 °C-1 °C93 %1017.3 hPa16.1 kmCalmClear
4:15 AM-1 °C-2 °C93 %1017.6 hPa16.1 kmCalmClear
4:35 AM-1 °C-2 °C93 %1017.6 hPa16.1 kmCalmClear
4:55 AM-1 °C-2 °C93 %1017.9 hPa11.3 kmCalmClear
5:15 AM-1 °C-2 °C93 %1018.3 hPa8 kmCalmClear
5:35 AM-1 °C-2 °C93 %1018.6 hPa16.1 kmCalmClear
5:55 AM-1 °C-2 °C93 %1019 hPa11.3 kmCalmClear
6:15 AM-1 °C-2 °C93 %1019.3 hPa11.3 kmCalmClear
6:35 AM-1 °C-2 °C93 %1019.3 hPa4 kmCalmClear
6:55 AM-1 °C-2 °C93 %1019.6 hPa4.8 kmCalmClear
7:15 AM-1 °C-2 °C93 %1020 hPa2.9 kmCalmMist
7:35 AM-1 °C-2 °C93 %1020.3 hPa8 kmCalmClear
7:55 AM0 °C-1 °C93 %1020.7 hPa8 kmCalmClear
8:15 AM0 °C0 °C100 %1020.7 hPa16.1 kmCalmClear
8:35 AM1 °C1 °C100 %1021.3 hPa16.1 kmCalmClear
8:55 AM3 °C3 °C100 %1021.7 hPa16.1 kmCalmClear
9:15 AM5 °C1 °C76 %1021.7 hPa16.1 kmCalmClear
9:35 AM6 °C1 °C70 %1021.7 hPa16.1 kmCalmClear
9:55 AM7 °C1 °C66 %1021.7 hPa16.1 kmCalmClear
10:15 AM7 °C1 °C66 %1021.7 hPa16.1 kmSouth (170°)5.6 km/hClear
10:35 AM8 °C1 °C62 %1021.7 hPa16.1 kmCalmClear
10:55 AM8 °C1 °C62 %1021.3 hPa16.1 kmSSW (200°)5.6 km/hClear
11:15 AM10 °C0 °C50 %1021 hPa16.1 kmSouth (190°)7.4 km/hClear
11:35 AM10 °C-1 °C47 %1020.7 hPa16.1 kmSouth (190°)7.4 km/hClear
11:55 AM11 °C-1 °C44 %1020.3 hPa16.1 kmSSW (200°)11.1 km/hClear
12:15 PM11 °C-2 °C41 %1020 hPa16.1 kmSouth (190°)11.1 km/hClear
12:35 PM12 °C-3 °C35 %1019.6 hPa16.1 kmSSW (200°)11.1 km/hClear
12:55 PM12 °C-3 °C35 %1019 hPa16.1 kmSW (220°)13 km/hClear
1:15 PM12 °C-5 °C30 %1019 hPa16.1 kmSouth (190°)13 km/hClear
1:35 PM13 °C-5 °C29 %1019 hPa16.1 kmSouth (180°)11.1 km/hClear
1:55 PM13 °C-5 °C29 %1019 hPa16.1 kmSouth (180°)13 km/hClear
2:15 PM13 °C-5 °C29 %1019 hPa16.1 kmSouth (180°)16.7 km/h25.9 km/hClear
2:35 PM13 °C-5 °C29 %1018.6 hPa16.1 kmSSE (160°)9.3 km/hClear
2:55 PM14 °C-6 °C25 %1018.6 hPa16.1 kmSouth (180°)11.1 km/hClear
3:15 PM14 °C-6 °C25 %1018.3 hPa16.1 kmSSE (160°)14.8 km/hClear
3:35 PM14 °C-6 °C25 %1018.3 hPa16.1 kmSouth (180°)9.3 km/hClear
4:35 PM13 °C-5 °C29 %1018.6 hPa16.1 kmSouth (190°)9.3 km/hClear
4:55 PM12 °C-6 °C28 %1018.6 hPa16.1 kmSSE (160°)5.6 km/hClear
5:15 PM11 °C-5 °C33 %1019 hPa16.1 kmSouth (170°)5.6 km/hClear
5:35 PM10 °C-4 °C37 %1019 hPa16.1 kmSSE (160°)5.6 km/hClear
5:55 PM10 °C-4 °C37 %1019 hPa16.1 kmSouth (170°)5.6 km/hClear
6:15 PM8 °C-3 °C46 %1019 hPa16.1 kmSouth (170°)7.4 km/hClear
6:35 PM6 °C-1 °C61 %1019 hPa16.1 kmSSE (150°)5.6 km/hClear
6:55 PM8 °C-4 °C43 %1019 hPa16.1 kmSE (140°)5.6 km/hClear
7:15 PM4 °C0 °C75 %1019 hPa16.1 kmCalmClear
7:35 PM3 °C-1 °C75 %1019.3 hPa16.1 kmCalmClear
7:55 PM4 °C-2 °C65 %1019 hPa16.1 kmCalmClear
8:15 PM6 °C-2 °C57 %1019 hPa16.1 kmSE (140°)5.6 km/hClear
8:35 PM3 °C0 °C81 %1019 hPa16.1 kmCalmClear
8:55 PM3 °C-2 °C70 %1019 hPa16.1 kmCalmClear
9:15 PM3 °C-2 °C70 %1019 hPa16.1 kmCalmClear
9:35 PM3 °C-2 °C70 %1019 hPa16.1 kmCalmClear
9:55 PM3 °C-2 °C70 %1018.6 hPa16.1 kmCalmClear
10:15 PM2 °C-1 °C81 %1018.6 hPa16.1 kmCalmClear
10:35 PM3 °C-1 °C75 %1018.6 hPa16.1 kmSSW (210°)5.6 km/hClear
10:55 PM6 °C-2 °C57 %1018.6 hPa16.1 kmCalmClear
11:15 PM8 °C-1 °C53 %1018.3 hPa16.1 kmSSE (150°)5.6 km/hClear
11:35 PM7 °C-2 °C53 %1017.9 hPa16.1 kmCalmClear
11:55 PM8 °C-2 °C50 %1017.9 hPa16.1 kmSouth (180°)7.4 km/hClear
Hourly data recorded from KMDQ, located 0 kilometers away from Fayetteville, Tennessee







STORIES FROM OUR PARTNERS